Address 0xd95eb18e066d370745dcc8eb31b62ced6b21f00c

Txn Hash Method
Block
From
To
Value [Txn Fee]
0xb11e514690c6a578fead4ae7e093050dd09df6f8b09661d4582a9744f70a2eaaTransfer1147525092023-01-28 6:04:5624 mins ago0xd95eb18e066d370745dcc8eb31b62ced6b21f00cSELF0xd95eb18e066d370745dcc8eb31b62ced6b21f00c1 wei0
0x040521d55519db1a65dafd6c5e45d1ea05f1cf0ce09428eff77eef46925ccfdbTransfer1147496932023-01-28 5:34:4354 mins ago0xd95eb18e066d370745dcc8eb31b62ced6b21f00cSELF0xd95eb18e066d370745dcc8eb31b62ced6b21f00c1 wei0
0x147ebdb67948a51fa2bfcba34baa1579947ed136609223a506c29301aeb490b8Transfer1147468662023-01-28 5:04:161 hr 24 mins ago0xd95eb18e066d370745dcc8eb31b62ced6b21f00cSELF0xd95eb18e066d370745dcc8eb31b62ced6b21f00c1 wei0
0x7374391c64ce97f6c986310d92a89047911ded6a6b08d01b9e7ff9eac24f9e78Transfer1147441362023-01-28 4:34:471 hr 54 mins ago0xd95eb18e066d370745dcc8eb31b62ced6b21f00cSELF0xd95eb18e066d370745dcc8eb31b62ced6b21f00c1 wei0
0x4743675bd3f9f9d8c2ce6a1837e2643de1e4183f79ad66328121e84e2cd91717Transfer1147413752023-01-28 4:05:072 hrs 23 mins ago0xd95eb18e066d370745dcc8eb31b62ced6b21f00cSELF0xd95eb18e066d370745dcc8eb31b62ced6b21f00c1 wei0
0x26fd12a7c25652baf0b1e1fde013478192855fb95289e87db12dd5e7c6888379Transfer1147384672023-01-28 3:33:572 hrs 55 mins ago0xd95eb18e066d370745dcc8eb31b62ced6b21f00cSELF0xd95eb18e066d370745dcc8eb31b62ced6b21f00c1 wei0
0x5050d3773d247cee3f1af291d3bf5448fbf5475b12ea3ddd0fea62a7f5a74dccTransfer1147356682023-01-28 3:04:143 hrs 24 mins ago0xd95eb18e066d370745dcc8eb31b62ced6b21f00cSELF0xd95eb18e066d370745dcc8eb31b62ced6b21f00c1 wei0
0x44334c8f3da7ecf000847ef0c7c4db7b3c1e5673adcf222bbbf568e10a1414d3Transfer1147339432023-01-28 2:45:343 hrs 43 mins ago0xd95eb18e066d370745dcc8eb31b62ced6b21f00cSELF0xd95eb18e066d370745dcc8eb31b62ced6b21f00c1 wei0
0xfc6236132770d85a55085b06906bfbca60837dc04e14089aecf4a694a05d2145Transfer1147321872023-01-28 2:27:004 hrs 2 mins ago0xd95eb18e066d370745dcc8eb31b62ced6b21f00cSELF0xd95eb18e066d370745dcc8eb31b62ced6b21f00c1 wei0
0x236d7c2aa6c10584c10579893ec60bc6463a38780b1edce970d6205273f99b6fTransfer1147269222023-01-28 1:31:174 hrs 57 mins ago0xd95eb18e066d370745dcc8eb31b62ced6b21f00cSELF0xd95eb18e066d370745dcc8eb31b62ced6b21f00c1 wei0
0x91dc5daf6aaad71cd3713319bae5996d55362010c48f05e2c4ad3259893ed8bfTransfer1147229082023-01-28 0:48:335 hrs 40 mins ago0xd95eb18e066d370745dcc8eb31b62ced6b21f00cSELF0xd95eb18e066d370745dcc8eb31b62ced6b21f00c1 wei0
0x3838a2fe4a95cf5e6db7564e08079f44262c472a66d64f9dc871c3b2acc9efbbTransfer1147196642023-01-28 0:14:196 hrs 14 mins ago0xd95eb18e066d370745dcc8eb31b62ced6b21f00cSELF0xd95eb18e066d370745dcc8eb31b62ced6b21f00c1 wei0
0x96308c81cf94f974ba023bf2b3a3ab628f325e45da7ab3de2b3b8df9b557edadTransfer1147158552023-01-27 23:33:276 hrs 55 mins ago0xd95eb18e066d370745dcc8eb31b62ced6b21f00cSELF0xd95eb18e066d370745dcc8eb31b62ced6b21f00c1 wei0
0x94dd082c117592750929e1e22612d36e79597e708438865e43a11347beca4ea9Transfer1147131282023-01-27 23:04:137 hrs 24 mins ago0xd95eb18e066d370745dcc8eb31b62ced6b21f00cSELF0xd95eb18e066d370745dcc8eb31b62ced6b21f00c1 wei0
0xcc653dbacaa11d8c49b349fc5ff6312b7003af030c5361832b75105a762e468fTransfer1147101942023-01-27 22:33:047 hrs 55 mins ago0xd95eb18e066d370745dcc8eb31b62ced6b21f00cSELF0xd95eb18e066d370745dcc8eb31b62ced6b21f00c1 wei0
0x09ff178f2323fd23fa0a217fbbadd63ba8d9199f80d29b3c5149938296f1b72bTransfer1147074982023-01-27 22:04:188 hrs 24 mins ago0xd95eb18e066d370745dcc8eb31b62ced6b21f00cSELF0xd95eb18e066d370745dcc8eb31b62ced6b21f00c1 wei0
0xb1af4f592e99b90ae55ebf8530ea1f4de79a79ff784581d23c4d4d3af0565fe4Transfer1147045652023-01-27 21:33:148 hrs 55 mins ago0xd95eb18e066d370745dcc8eb31b62ced6b21f00cSELF0xd95eb18e066d370745dcc8eb31b62ced6b21f00c1 wei0
0xc80ab98d6e4c0825a810b512269d18e5800fbac33f09411d56284bbd234bb974Transfer1147018252023-01-27 21:04:109 hrs 24 mins ago0xd95eb18e066d370745dcc8eb31b62ced6b21f00cSELF0xd95eb18e066d370745dcc8eb31b62ced6b21f00c1 wei0
0x2f1afc70e3eee5270c5d8e4f2ceb918f327b39e4e8546600059ae457526139d1Transfer1146989352023-01-27 20:33:189 hrs 55 mins ago0xd95eb18e066d370745dcc8eb31b62ced6b21f00cSELF0xd95eb18e066d370745dcc8eb31b62ced6b21f00c1 wei0
0xac03b3fd60b87b7a69e5482c3c538d1598b68808997522a32856759ea0d2793eTransfer1146962362023-01-27 20:04:0510 hrs 24 mins ago0xd95eb18e066d370745dcc8eb31b62ced6b21f00cSELF0xd95eb18e066d370745dcc8eb31b62ced6b21f00c1 wei0
0xbe5e2aa69e74901fd620c6ea4c6505c95e9ef7277f27d0290c87f52f2c577e02Transfer1146933082023-01-27 19:33:3010 hrs 55 mins ago0xd95eb18e066d370745dcc8eb31b62ced6b21f00cSELF0xd95eb18e066d370745dcc8eb31b62ced6b21f00c1 wei0
0x3d450dc780c284c4ada38553af014433e079bd2b6866688d3c37296051269af2Transfer1146904142023-01-27 19:04:1011 hrs 24 mins ago0xd95eb18e066d370745dcc8eb31b62ced6b21f00cSELF0xd95eb18e066d370745dcc8eb31b62ced6b21f00c1 wei0
0xfa5fab1f24b9d878b250f8804647291c161df1260fb189bb6d0058998b608a50Transfer1146874472023-01-27 18:34:1011 hrs 54 mins ago0xd95eb18e066d370745dcc8eb31b62ced6b21f00cSELF0xd95eb18e066d370745dcc8eb31b62ced6b21f00c1 wei0
0xc1282aac48b36da986fcdaf6cc2173b1f5c9ff590051bffe41d07f582a8494a7Transfer1146845232023-01-27 18:04:3412 hrs 24 mins ago0xd95eb18e066d370745dcc8eb31b62ced6b21f00cSELF0xd95eb18e066d370745dcc8eb31b62ced6b21f00c1 wei0
0x2651e5df82fac6ade800056710ec1f260f82dea26a83ea8d124d388592862aecTransfer1146814312023-01-27 17:33:1812 hrs 55 mins ago0xd95eb18e066d370745dcc8eb31b62ced6b21f00cSELF0xd95eb18e066d370745dcc8eb31b62ced6b21f00c1 wei0
[ Download CSV Export 
Parent Txn Hash Block From To Value
Loading

Contract Name:
0

Compiler Version
0

Optimization Enabled:
0

Other Settings:
-NA-
Block Transaction Gas Used Reward
Age Block Fee Address BC Fee Address Voting Power Jailed Incoming
Block Uncle Number Difficulty Gas Used Reward
Loading